Location: Newark
(52.1472°N, 117.4361°W)
Time: 19:56:30
(UTC+00:00)

ISS - Visible Passes

Search period start: 23 September 2020 00:00
Search period end: 03 October 2020 00:00
Orbit: 419 x 420 km, 51.6° (Epoch: 24 September)

Date Brightness Start Highest point End Pass type
(mag) Time Alt. Az. Time Alt. Az. Time Alt. Az.
23 Sep -3.8 03:26:30 10° WSW 03:29:52 68° SSE 03:30:45 44° E visible
23 Sep -0.7 05:03:15 10° W 05:03:43 13° W 05:03:43 13° W visible
24 Sep -3.5 02:39:13 10° WSW 02:42:31 55° SSE 02:45:13 15° E visible
24 Sep -2.5 04:15:53 10° W 04:18:10 40° W 04:18:10 40° W visible
25 Sep -3.9 03:28:30 10° W 03:31:53 83° S 03:32:35 53° E visible
25 Sep -0.5 05:05:18 10° W 05:05:33 12° W 05:05:33 12° W visible
26 Sep -3.8 02:41:07 10° WSW 02:44:29 78° S 02:46:58 17° E visible
26 Sep -2.1 04:17:55 10° W 04:19:55 33° W 04:19:55 33° W visible
27 Sep -3.9 03:30:30 10° W 03:33:53 80° S 03:34:16 66° ESE visible
28 Sep -3.8 02:43:05 10° W 02:46:28 84° S 02:48:37 21° E visible
28 Sep -1.7 04:19:54 10° W 04:21:34 25° W 04:21:34 25° W visible
29 Sep -3.6 03:32:28 10° W 03:35:47 59° SSW 03:35:55 58° S visible
30 Sep -3.7 02:45:01 10° W 02:48:23 71° SSW 02:50:16 24° ESE visible
30 Sep -1.2 04:22:01 10° W 04:23:13 18° WSW 04:23:13 18° WSW visible
01 Oct -3.7 01:57:34 10° W 02:00:57 80° S 02:04:20 10° E visible
01 Oct -2.7 03:34:27 10° W 03:37:34 35° SSW 03:37:35 35° SSW visible
02 Oct -3.0 02:46:56 10° W 02:50:11 46° SSW 02:52:00 22° SE visible
02 Oct -0.7 04:24:42 10° WSW 04:24:57 11° WSW 04:24:57 11° WSW visible
